Torna al catalogo

STARLINK-6096

AttivoComunicazioniVLEO
NORAD 56103·PAYLOAD·🇺🇸 United States

Lanciato Mar 29, 2023 da Cape Canaveral Space Force Station

Loading…

Prossimi Passaggi (prossime 24 ore)

TLE

AggiornatoSource: CelesTrak SupGP

Epoca: Sep 15, 2026, 02:38 UTC

1 56103C 23046L   26258.11020833  .00018275  00000+0  66206-3 0  2584
2 56103  42.9997 171.6132 0001079 257.0230  89.6535 15.27563676    19

Traccia STARLINK-6096 in tempo reale con AllMySat

Download on the App Store